This is the latest recevied weather packets stored in our database for station/object SQ7IQO. If no packets are shown the sender has not sent any weather packets the latest 10 day(s).
| Time | Temp. | Humidity | Pressure | Rain* | Wind** | Luminosity | Snow |
|---|---|---|---|---|---|---|---|
| 1787658996 | 22.78° C | 52% | 1021.4 hPa | 0 mm | 0 m/s | - | - |
| 1787658936 | 22.78° C | 54% | 1021.4 hPa | 0 mm | 0 m/s | - | - |
| 1787658876 | 22.78° C | 54% | 1021.4 hPa | 0 mm | 0 m/s | - | - |
| 1787658816 | 22.22° C | 55% | 1021.4 hPa | 0 mm | 0 m/s | - | - |
| 1787658756 | 21.67° C | 57% | 1021.4 hPa | 0 mm | 0 m/s | - | - |
| 1787658696 | 21.67° C | 57% | 1021.4 hPa | 0 mm | 0 m/s | - | - |
| 1787658636 | 21.11° C | 57% | 1022.4 hPa | 0 mm | 0 m/s | - | - |
| 1787658576 | 20.56° C | 58% | 1021.4 hPa | 0 mm | 0 m/s | - | - |
| 1787658516 | 20.56° C | 58% | 1021.5 hPa | 0 mm | 0 m/s | - | - |
| 1787658456 | 20.56° C | 57% | 1021.5 hPa | 0 mm | 0.45 m/s, ° | - | - |
| 1787658396 | 20.56° C | 59% | 1021.5 hPa | 0 mm | 0 m/s | - | - |
| 1787658336 | 20° C | 64% | 1021.5 hPa | 0 mm | 0 m/s | - | - |
| 1787658276 | 19.44° C | 63% | 1021.6 hPa | 0 mm | 0 m/s | - | - |
| 1787658216 | 19.44° C | 63% | 1021.5 hPa | 0 mm | 0 m/s | - | - |
| 1787658156 | 19.44° C | 65% | 1021.6 hPa | 0 mm | 0 m/s | - | - |
| 1787658096 | 19.44° C | 61% | 1289.4 hPa | 0 mm | 0 m/s | - | - |
| 1787658036 | 20° C | 63% | 1021.5 hPa | 0 mm | 0 m/s | - | - |
| 1787657976 | 20° C | 61% | 1021.5 hPa | 0 mm | 0 m/s | - | - |
| 1787657916 | 20° C | 60% | 1021.5 hPa | 0 mm | 0 m/s | - | - |
| 1787657856 | 20.56° C | 60% | 1021.5 hPa | 0 mm | 0 m/s | - | - |
| 1787657796 | 20.56° C | 58% | 1021.5 hPa | 0 mm | 0 m/s | - | - |
| 1787657736 | 20.56° C | 59% | 1021.5 hPa | 0 mm | 0 m/s | - | - |
| 1787657676 | 21.11° C | 60% | 1021.5 hPa | 0 mm | 0 m/s | - | - |
| 1787657616 | 21.11° C | 59% | 1021.5 hPa | 0 mm | 0 m/s | - | - |
| 1787657556 | 21.67° C | 59% | 1021.5 hPa | 0 mm | 0 m/s | - | - |
* Rain latest hour (hover to see other rain measurements)
** Current wind speed in m/s (hover to see current wind gust speed)